Flag for U.S.A. Weather past 2 weeks in Cheyenne, Wyoming, U.S.A.

52 °F


Feels Like: 49 °F
Forecast: 48 / 70 °F
Wind: 8 mph from Southwest

Location: Cheyenne Airport

Current Time: Oct 6, 2015 at 9:38:50 PM

Latest Report: Oct 6, 2015 at 8:53 PM

Visibility: 10 mi

Pressure: 30.12 "Hg (24.10 "Hg at 1855m altitude)

Humidity: 89%

Dew point: 49 °F

Location of CheyenneLocation

Historic Weather in Cheyenne — Graph


Cheyenne temperature yesterday

Maximum temperature yesterday: 71 °F (at 2:53 PM)
Minimum temperature yesterday: 46 °F (at 12:53 AM)
Average temperature yesterday: 55 °F

Past Weeks' High & Low Weather Summary

High85 °F (Sep 27, 2:53 PM)100% (Sep 23, 12:02 AM)30.27 "Hg (Sep 23, 12:02 AM)
Low41 °F (Oct 3, 6:53 AM)15% (Sep 24, 1:53 PM)29.74 "Hg (Sep 27, 4:53 PM)
Average59 °F66%29.98 "Hg
* Reported Sep 21 7:53 PM — Oct 6 7:53 PM, Cheyenne, Weather by CustomWeather, © 2015

Note: Actual official high and low records may vary slightly from our data, if they occured in-between our weather recording intervals... More about our weather records


Cheyenne weather history for previous 24 hours

Time TempWeatherWind HumidityBarometerVisibility
7:53 PM
Tue, Oct 6
53 °FLight rain. Overcast.7 mph83%30.11 "Hg10 mi
6:53 PM55 °FLight rain. Fog.9 mph90%30.10 "Hg6 mi
5:53 PM56 °FOvercast.9 mph84%30.09 "Hg10 mi
4:53 PM59 °FOvercast.10 mph69%30.09 "Hg10 mi
3:53 PM58 °FPartly sunny.14 mph75%30.10 "Hg10 mi
2:53 PM61 °FOvercast.9 mph67%30.10 "Hg10 mi
1:53 PM59 °FMore clouds than sun.9 mph64%30.11 "Hg10 mi
12:53 PM59 °FPartly sunny.8 mph67%30.13 "Hg10 mi
11:53 AM57 °FMore clouds than sun.7 mph74%30.15 "Hg10 mi
10:53 AM52 °FMore clouds than sun.6 mph89%30.16 "Hg10 mi
9:53 AM51 °FOvercast.6 mph92%30.16 "Hg10 mi
8:53 AM51 °FFog.7 mph92%30.13 "Hg6 mi
7:53 AM50 °FFog.No wind93%30.10 "Hg4 mi
6:53 AM50 °FPartly cloudy.3 mph93%30.07 "Hg7 mi
6:02 AM51 °FOvercast.3 mph89%30.22 "Hg9 mi
5:53 AM51 °FThundershowers. Mostly cloudy.3 mph89%30.05 "Hg9 mi
4:53 AM49 °FLow clouds.No wind90%30.03 "Hg10 mi
3:53 AM47 °FOvercast.3 mph93%30.02 "Hg10 mi
2:53 AM45 °FPassing clouds.5 mph90%30.01 "Hg10 mi
1:53 AM46 °FClear.7 mph89%30.01 "Hg8 mi
12:53 AM48 °FClear.3 mph89%30.02 "Hg10 mi
11:53 PM
Mon, Oct 5
49 °FFog.5 mph93%30.03 "Hg5 mi
10:53 PM51 °FFog.No wind89%30.03 "Hg6 mi
9:53 PM51 °FFog.6 mph89%30.05 "Hg6 mi
Weather by CustomWeather, © 2015

See weather overviewHow to use our weather pages